Tracking 30970 objects as of 3-Jul-2025
HD Live streaming from Space Station
objects crossing your sky now

PSLV R/B

Track PSLV R/B now!
10-day predictions


NORAD ID: 28651
Int'l Code: 2005-017C
Perigee: 594.3 km
Apogee: 689.6 km
Inclination: 97.9 °
Period: 97.4 minutes
Semi major axis: 7012 km
RCS: 6.3542 m2 (large)
Launch date: May 5, 2005
Source: India (IND)
Launch site: SRIHARIKOTA (SRI)

Note: This is a ROCKET BODY
Your satellite tracking list
Your tracking list is empty




NASA's NSSDC Master Catalog

Two Line Element Set (TLE):
1 28651U 05017C   25183.72002254  .00000802  00000-0  11367-3 0  9997
2 28651  97.8885  89.4863 0067967 358.9960   1.1104 14.78252861 83408
Source of the keplerian elements: AFSPC